Presure
123 136 105 121 102 158 139 102 130 122 141 123 149 154 186 143 228 281 124 350 333 222 207 218 150 265 133 143 185 148 194 147 140 173 137 152 273 202 245 233 215 197 209 201 165
146 137 108 106 98 137 158 123 126 155 139 193 158 201 154 336 188 122 442 402 327 216 262 163 302 261 133 141 130 149 131 167 200 161 204 144 267 240 257 241 227 214 208 203 198
136 131 116 122 131 120 130 143 148 147 155 167 157 186 324 191 420 436 375 168 384 409 391 322 370 370 154 138 138 280 313 236 171 240 159 141 259 261 233 248 193 149 215 207 203
117 159 136 136 131 124 157 136 131 129 158 119 160 135 313 185 265 424 421 407 410 135 126 380 264 357 129 341 324 195 161 151 277 254 195 182 159 160 242 208 237 195 218 190 189
118 136 111 154 107 121 129 134 141 160 167 160 127 170 463 458 440 450 444 429 411 397 393 390 381 226 128 256 304 225 153 332 282 314 257 290 245 158 252 254 213 229 214 151 197
178 162 100 167 155 114 100 142 139 153 161 131 201 264 299 452 429 416 164 150 159 401 390 394 394 399 287 351 341 245 323 330 251 279 295 294 254 153 171 237 222 241 222 147 164
123 164 155 131 140 151 157 120 144 152 212 193 305 443 439 393 419 426 420 396 415 234 205 391 403 394 401 352 348 315 309 335 320 274 297 283 134 144 262 249 258 235 220 215 222
103 151 149 153 131 155 126 165 129 139 238 287 313 178 432 425 135 394 339 393 371 404 388 393 400 388 387 354 381 329 285 337 327 262 131 290 143 247 275 268 239 237 236 150 64
171 129 157 136 131 145 153 145 151 217 186 142 184 438 429 409 191 351 253 389 211 349 382 372 397 385 384 132 369 349 331 178 316 300 136 223 277 141 279 270 246 248 249 195 231
138 143 176 132 152 152 168 153 238 288 183 262 248 292 410 408 279 317 375 143 181 394 390 393 378 355 304 380 382 138 159 111 171 285 294 240 281 286 177 279 271 237 235 242 243
164 170 122 181 96 152 143 152 163 261 244 160 436 149 379 131 224 125 152 157 360 366 383 372 394 390 388 221 132 360 338 214 255 308 309 295 284 170 273 280 268 254 233 223 230
136 163 147 146 123 147 184 159 246 254 128 297 421 428 309 310 375 362 127 345 344 355 353 388 364 369 197 363 353 341 350 346 304 304 311 299 279 253 287 269 270 258 236 240 238
166 148 127 153 148 154 151 160 146 217 225 309 132 147 370 155 366 233 333 332 336 339 343 347 383 353 276 369 357 350 341 332 322 301 307 298 284 187 258 279 240 269 247 237 230
133 122 125 165 153 162 163 144 191 243 378 144 412 375 391 373 134 185 279 324 323 321 333 336 358 212 348 323 360 333 320 302 307 316 317 297 284 277 274 280 297 274 263 245 237
148 141 142 128 210 146 179 168 198 246 427 413 413 396 383 368 349 209 329 320 318 316 322 327 333 379 351 340 363 355 325 309 307 310 321 297 288 278 278 282 273 299 273 256 237
113 134 154 222 143 174 198 154 214 235 327 422 408 386 221 361 350 337 324 317 313 316 316 318 332 344 375 161 341 335 319 314 302 301 301 308 296 275 277 266 291 302 281 258 250
140 113 160 138 153 169 258 276 282 227 429 396 401 388 370 355 347 328 320 312 334 442 436 315 320 321 371 364 324 320 326 312 312 301 297 309 310 279 279 282 165 277 305 267 252
135 145 169 222 166 245 186 270 284 246 369 420 405 249 364 350 339 327 316 306 404 417 424 455 312 317 335 353 317 327 315 307 300 303 286 304 311 242 280 281 285 115 300 279 259
140 153 153 164 146 238 197 245 261 271 430 414 398 379 361 348 332 323 312 303 383 392 397 410 409 308 312 344 343 314 310 314 316 305 293 284 312 287 286 276 280 292 295 291 259
141 158 159 154 148 237 176 244 264 369 421 413 395 378 359 344 330 317 311 306 349 387 391 398 395 314 304 334 338 355 299 324 327 309 313 306 303 285 292 281 288 286 291 291 260
159 157 208 209 240 220 158 258 250 315 418 405 388 372 353 340 326 313 305 306 371 375 390 377 375 405 298 304 333 341 356 310 313 306 319 324 289 303 281 304 283 283 290 286 267
155 223 212 240 222 207 252 269 252 283 407 402 382 369 351 337 322 310 299 299 295 352 364 377 367 381 294 297 320 330 332 341 297 310 294 301 299 302 323 297 295 283 285 286 288
164 186 142 216 233 243 221 289 291 403 400 395 376 361 347 333 317 306 299 298 368 359 358 371 361 357 397 293 306 334 333 360 297 322 305 290 294 296 295 296 296 268 280 281 275
150 162 240 246 219 234 260 274 332 415 396 388 378 353 344 327 312 299 295 296 368 350 346 360 349 363 356 355 293 316 328 353 324 294 313 325 329 277 320 310 296 273 276 270 263
198 180 139 228 251 252 256 212 283 404 401 379 370 352 337 320 305 296 290 379 371 348 342 345 357 348 366 388 288 290 312 346 333 318 304 314 310 327 318 270 299 277 318 282 259
225 175 205 246 247 249 232 283 307 401 396 370 368 351 331 313 298 291 285 395 378 364 337 343 353 340 353 398 284 277 300 308 326 311 299 306 304 282 312 276 300 289 296 311 271
196 231 247 180 246 235 264 262 406 392 385 372 356 340 325 305 295 288 284 400 366 369 350 337 336 336 350 447 342 272 273 297 333 314 307 291 305 301 284 296 290 285 284 296 288
Wind_Speed
17 31 28 29 25 55 37 39 44 32 44 52 50 54 70 55 51 53 57 46 51 63 46 61 72 67 33 54 42 42 57 59 55 70 52 55 86 75 102 101 93 81 88 88 93
47 36 16 37 29 35 54 43 39 59 44 76 60 79 53 39 69 63 36 42 49 54 51 36 61 70 47 48 34 45 46 57 61 65 69 53 84 94 98 103 101 95 91 92 90
41 34 25 24 32 36 30 44 55 54 66 74 60 73 87 67 40 31 38 56 47 53 61 60 73 77 64 41 54 69 72 65 62 77 62 49 85 96 86 100 76 66 98 97 94
21 48 44 43 32 28 61 44 57 58 70 52 65 56 80 46 47 35 34 36 44 62 51 67 55 72 30 74 74 63 52 56 83 84 80 68 65 52 96 83 108 80 102 85 87
20 45 35 58 51 50 40 50 54 72 76 70 49 72 43 33 33 32 32 34 43 49 56 60 67 52 40 63 75 60 47 81 81 83 80 87 89 61 96 98 89 103 94 63 88
67 62 30 63 55 33 43 50 58 72 77 52 78 35 46 33 33 33 31 28 35 43 51 55 58 63 56 72 72 62 75 79 68 76 79 85 87 51 51 96 92 106 102 60 66
21 64 56 33 51 63 70 54 64 78 96 79 105 51 43 50 35 31 29 30 30 36 40 51 54 58 57 68 73 70 71 80 82 74 84 82 44 43 93 95 98 104 102 97 104
38 58 60 62 30 70 48 79 57 68 94 98 108 46 44 35 22 32 31 27 28 33 42 46 50 54 55 68 65 73 75 81 82 78 44 85 49 88 95 96 100 97 105 67 19
74 49 67 41 31 59 71 64 77 99 81 49 53 46 39 35 24 29 33 27 29 31 37 43 48 52 54 48 66 75 73 53 79 83 48 67 87 49 96 97 100 100 105 87 107
49 59 79 30 68 72 74 79 94 104 82 107 84 31 42 35 28 29 26 37 27 25 35 40 47 47 48 58 59 43 44 20 49 74 86 65 90 93 69 97 98 103 105 109 106
75 75 29 87 36 63 57 78 85 102 88 53 46 41 35 32 33 43 34 36 23 25 30 39 45 47 49 53 43 66 71 55 68 81 88 82 93 64 92 94 96 102 104 93 102
40 74 58 54 43 65 92 75 88 106 45 108 52 38 38 29 28 25 44 24 23 24 28 32 38 46 46 54 61 69 71 78 81 82 85 87 91 87 94 93 99 100 104 105 103
77 64 48 72 62 69 71 79 55 101 103 103 33 46 36 31 25 33 22 25 25 24 25 28 38 45 43 53 60 64 70 73 77 79 79 88 92 73 92 92 91 101 104 104 101
39 29 33 85 79 80 87 51 99 110 91 35 46 48 33 28 36 37 28 25 28 25 24 28 34 38 43 48 57 64 67 72 76 77 81 88 91 94 97 96 99 103 103 102 100
64 55 61 37 95 64 102 81 97 109 60 48 41 37 33 27 26 36 22 25 27 28 26 28 34 43 47 48 53 54 68 71 73 72 79 89 94 92 96 98 97 99 97 100 98
42 47 77 90 61 99 103 66 87 113 117 42 37 35 36 28 25 24 22 22 24 26 28 29 34 37 45 45 50 59 67 70 75 77 84 89 90 94 94 88 92 88 98 98 99
56 46 82 55 78 97 100 113 123 93 49 53 34 31 29 28 26 25 23 21 21 9 8 30 32 38 44 50 55 63 65 69 73 81 82 84 92 96 92 93 40 86 90 97 96
53 69 94 106 93 97 94 108 120 115 39 34 30 47 29 27 26 25 24 21 10 10 5 8 35 39 42 46 54 60 63 69 75 78 82 81 86 78 88 90 87 25 83 97 97
67 83 79 92 62 104 102 108 106 115 34 30 29 27 27 27 25 25 24 22 10 9 1 7 14 41 43 51 56 62 64 69 73 77 80 80 74 82 87 84 85 82 82 84 90
68 87 87 83 68 104 96 109 112 76 33 29 25 25 25 25 25 25 24 22 15 5 2 7 12 41 48 51 56 60 67 70 69 69 74 71 75 81 83 86 86 84 77 80 90
87 88 101 98 101 106 85 99 111 109 31 29 25 24 25 25 24 24 26 24 12 7 4 9 17 8 50 52 53 57 63 64 64 67 63 66 71 77 80 88 82 82 79 76 88
84 103 77 101 109 97 99 117 101 131 31 27 24 23 23 24 24 24 25 26 21 12 4 10 18 17 55 54 55 56 55 59 64 61 65 67 73 74 79 81 83 80 76 73 78
99 91 57 107 102 96 116 123 127 37 30 27 23 24 22 23 23 26 26 27 10 9 9 9 7 23 11 54 53 54 53 53 62 62 64 68 67 69 77 78 79 76 74 73 74
81 97 102 96 112 110 116 123 122 30 29 27 22 24 23 22 24 27 27 28 13 18 16 13 18 13 25 36 54 50 50 53 62 63 57 60 53 74 70 75 75 75 75 73 75
93 98 56 106 103 113 118 104 115 31 28 25 25 19 25 21 24 27 29 18 18 21 20 17 14 18 17 24 53 52 48 49 57 61 64 57 59 53 66 74 72 74 74 78 79
100 88 87 99 100 99 113 127 93 30 25 28 25 20 22 22 25 29 29 25 23 28 22 15 13 17 19 19 54 52 51 51 58 62 61 60 61 70 61 73 70 70 66 71 81
103 105 103 81 97 91 117 114 29 29 29 25 24 23 21 23 27 30 30 26 23 24 24 18 20 17 14 19 44 56 56 54 57 60 63 64 62 65 67 71 70 68 67 67 74
Wind_Direction
316 326 258 326 308 322 323 298 325 309 303 307 318 313 315 293 285 295 289 258 252 266 262 252 263 246 269 272 249 280 248 261 258 245 248 246 213 222 214 213 218 223 222 221 226
321 328 340 262 327 321 324 329 286 319 319 321 320 318 303 299 305 278 253 248 254 265 237 262 234 244 264 272 266 270 254 244 237 252 233 250 213 218 216 213 215 220 219 221 223
330 338 328 320 324 330 321 329 335 332 330 326 322 322 325 309 305 265 266 275 239 234 228 237 229 227 258 259 269 228 223 235 250 223 247 249 216 217 218 214 225 236 219 218 220
340 318 328 331 325 303 325 329 300 312 329 308 309 305 324 312 305 277 261 249 235 271 272 228 240 230 252 223 225 243 250 258 219 219 231 238 247 242 216 218 214 223 218 222 219
299 332 285 324 285 312 306 311 339 331 325 325 303 316 314 305 294 283 265 249 240 233 235 232 230 240 253 227 226 223 246 216 220 217 217 215 216 242 214 214 219 215 220 237 221
314 308 305 323 321 301 309 340 326 331 329 308 322 313 317 307 300 292 287 286 284 233 235 232 232 234 232 222 222 217 219 216 222 216 217 216 216 245 216 215 220 214 216 238 231
315 320 320 324 328 329 330 294 336 336 327 327 337 324 318 320 303 290 279 267 249 272 271 230 227 230 228 220 220 218 218 215 212 214 215 214 242 244 217 213 214 217 218 222 222
297 325 326 324 324 328 302 323 310 320 321 336 338 324 320 315 287 297 285 269 255 237 229 230 224 223 224 218 220 213 215 214 210 215 240 212 240 214 216 214 215 217 216 221 261
316 318 322 338 320 333 334 340 337 330 330 319 324 326 324 318 276 290 281 271 281 248 231 230 224 220 218 264 217 215 215 228 212 212 242 222 213 241 216 215 213 214 216 224 219
328 324 319 325 330 331 330 339 326 339 333 327 330 321 324 317 295 287 286 282 285 246 233 226 225 227 230 216 215 257 253 250 236 215 215 218 215 217 231 215 213 216 218 220 218
316 321 310 319 320 333 342 338 335 326 334 319 332 328 324 274 286 279 285 294 267 248 239 228 224 221 216 241 271 211 211 230 217 212 211 209 214 241 218 215 214 214 219 223 220
319 322 328 333 298 334 329 331 338 334 320 339 333 329 323 305 304 293 282 285 271 254 243 230 226 221 257 210 211 212 211 210 207 209 208 209 212 221 218 215 216 214 217 219 222
316 328 312 334 336 336 337 337 321 331 330 338 313 325 326 289 308 287 285 283 276 261 243 236 220 220 223 210 212 210 210 209 211 211 208 208 211 235 220 215 219 213 214 218 221
317 314 304 327 335 333 333 319 332 327 338 313 335 333 328 322 279 292 289 281 273 267 249 230 226 226 216 216 210 210 209 206 210 210 208 209 210 215 216 218 217 214 214 217 220
327 328 339 315 327 334 332 338 333 325 339 336 335 332 327 321 314 295 292 283 274 266 251 233 226 216 215 209 210 203 211 209 210 211 209 209 208 214 217 219 217 216 214 217 218
302 331 330 328 329 332 328 341 328 329 340 336 333 330 316 320 314 305 299 290 277 264 252 236 221 219 211 232 204 206 209 210 208 207 210 209 207 215 218 219 222 220 214 215 217
336 304 327 334 335 334 336 353 352 339 335 337 333 328 326 321 315 308 305 297 289 21 291 231 219 216 207 206 202 206 206 209 210 208 209 210 208 210 216 219 219 216 217 214 216
333 333 325 328 332 329 334 352 348 342 328 330 331 327 324 320 315 310 308 303 1 5 45 32 216 210 205 205 206 208 207 210 210 211 209 210 208 220 214 220 222 223 217 214 214
332 327 331 330 336 327 330 327 344 348 328 327 326 326 321 316 313 312 311 306 337 353 277 124 203 210 206 202 204 206 206 210 211 209 210 212 208 208 212 218 223 222 216 214 215
327 325 327 337 343 329 332 331 351 334 327 325 325 322 318 315 313 313 312 308 308 359 188 145 186 207 209 204 204 205 207 207 209 213 213 211 209 210 211 216 218 223 218 214 212
321 327 328 331 330 327 338 341 334 345 326 324 323 321 316 312 312 313 312 311 308 328 113 183 203 141 212 206 209 208 209 208 210 212 211 210 210 210 214 214 216 220 220 214 211
324 330 336 331 326 330 336 351 332 346 329 324 321 320 314 310 310 311 310 308 302 283 219 174 200 190 210 211 205 204 208 205 209 210 211 209 209 206 206 214 215 217 218 217 216
319 331 322 327 333 330 326 346 343 329 329 324 323 318 313 307 308 310 310 308 261 228 226 153 179 205 224 213 208 203 200 202 205 204 208 208 207 209 210 214 214 214 215 214 214
328 323 330 332 324 329 347 351 338 328 329 322 322 317 310 306 307 310 310 308 226 237 235 169 196 200 193 210 208 201 201 197 200 206 202 209 204 210 206 212 214 213 213 210 212
325 325 325 326 338 337 339 325 347 329 328 322 325 315 305 306 308 309 309 240 216 223 231 219 196 208 207 207 203 203 198 199 197 196 206 203 202 201 203 212 214 213 215 212 208
326 328 329 335 338 337 324 347 345 329 328 324 324 319 305 307 310 310 310 213 205 205 222 211 166 185 211 212 201 204 196 196 198 199 203 202 201 205 203 210 211 214 215 214 208
321 327 335 335 338 338 349 347 332 332 327 326 324 317 311 313 313 313 314 206 208 194 202 182 175 184 200 162 187 203 204 199 197 196 198 203 200 203 207 206 210 212 214 215 212